Location: Aldenham
(51.6667°N, 0.3500°W)
Time: 01:12:44
(UTC+00:00)

Altair - Pass Details

Date: 19 February 2026
Orbit: 1502 x 1682 km, 47.2° (Epoch: 10 March)

Event Time Altitude Azimuth Distance (km) Brightness Sun altitude
Rises 04:34:48 0° 226° (SW) 4,627 - -24.3°
Reaches altitude 10° 04:37:56 10° 221° (SW) 3,654 - -23.8°
Exits shadow 04:40:43 22° 212° (SSW) 2,858 8.5 -23.4°
Maximum altitude 04:46:32 47° 151° (SSE) 1,949 8.1 -22.5°
Drops below altitude 10° 04:55:21 10° 82° (E) 3,756 10.7 -21.2°
Sets 04:58:37 0° 77° (ENE) 4,767 11.7 -20.7°
